GEFSNE_prec_meanprecacc_234.txt.gz
Total_Precipitation_Accumulation
1.43 1.56 1.45 1.25 1.23 1.19 1.42 1.73 1.87 1.68 1.50 1.36 1.31 1.32 1.33 1.39 1.55 1.44 1.46 1.45 1.31 1.19 1.10 1.04 1.02 0.99 0.99 1.08 1.17 1.20 1.24 1.34 1.54 1.75 1.97 2.25 2.54 2.83
1.60 1.60 1.49 1.34 1.40 1.26 1.33 1.59 1.78 1.92 1.76 1.30 1.34 1.34 1.42 1.32 1.53 1.42 1.44 1.47 1.31 1.19 1.09 1.04 1.00 0.98 0.98 1.00 1.05 1.13 1.17 1.17 1.24 1.34 1.45 1.57 1.69 1.88
1.77 1.67 1.61 1.62 1.62 1.49 1.51 1.60 1.66 1.86 1.85 1.50 1.44 1.57 1.67 1.58 1.61 1.56 1.43 1.44 1.33 1.27 1.11 1.04 0.99 0.97 0.99 0.98 0.99 0.99 1.03 1.06 1.09 1.14 1.21 1.27 1.28 1.30
2.13 2.19 1.97 1.89 1.85 1.70 1.68 1.66 1.68 1.82 1.87 1.77 1.68 1.75 1.78 1.72 1.68 1.50 1.26 1.18 1.23 1.34 1.25 1.12 1.05 0.99 0.95 0.94 0.95 0.94 0.94 0.97 1.01 1.03 1.06 1.10 1.14 1.14
1.98 2.16 2.17 2.25 2.03 1.97 1.88 1.80 1.76 1.72 1.86 1.81 1.69 1.87 1.90 1.87 1.75 1.43 1.30 1.32 1.18 1.35 1.34 1.15 1.03 0.98 0.93 0.89 0.87 0.87 0.87 0.89 0.92 0.95 0.95 0.93 0.94 0.96
1.77 1.83 1.95 2.20 2.19 2.18 2.04 2.02 2.03 2.01 2.05 1.98 1.89 1.99 2.17 2.21 2.02 1.66 1.51 1.44 1.33 1.18 1.26 1.15 1.08 1.02 0.95 0.89 0.85 0.81 0.82 0.84 0.86 0.87 0.89 0.89 0.87 0.84
1.81 1.74 1.72 1.95 2.05 2.06 1.86 1.92 2.08 2.13 2.16 2.12 2.08 2.13 2.20 2.31 2.05 1.80 1.62 1.58 1.52 1.34 1.25 1.09 1.04 0.99 1.02 1.04 0.99 0.90 0.85 0.84 0.86 0.88 0.87 0.87 0.87 0.88
2.06 1.98 1.86 1.79 1.78 1.83 1.87 1.91 1.97 1.97 2.01 2.05 2.01 2.04 2.12 2.22 2.31 2.12 1.87 1.71 1.57 1.40 1.40 1.25 1.16 1.10 0.99 0.92 1.01 0.98 0.90 0.86 0.84 0.85 0.86 0.88 0.86 0.83
2.03 2.02 1.81 1.67 1.78 1.72 1.87 1.89 1.78 1.71 1.68 1.75 1.79 1.85 2.22 2.46 2.66 2.38 2.13 1.92 1.70 1.56 1.51 1.33 1.22 1.11 0.98 0.93 1.04 0.92 0.86 0.82 0.79 0.78 0.79 0.80 0.82 0.84
1.71 1.81 1.77 1.68 1.67 1.73 1.67 1.50 1.38 1.38 1.39 1.32 1.36 1.58 1.93 2.40 2.63 2.63 2.58 2.33 2.06 1.71 1.48 1.28 1.09 1.02 0.96 0.93 1.02 0.96 0.87 0.83 0.78 0.74 0.69 0.69 0.74 0.79
1.51 1.51 1.51 1.42 1.51 1.53 1.44 1.28 1.19 1.16 1.20 1.20 1.19 1.34 1.58 1.90 2.26 2.42 2.35 2.15 1.84 1.49 1.29 1.16 1.04 1.03 0.98 0.91 0.92 1.03 0.93 0.86 0.83 0.79 0.76 0.74 0.76 0.83
1.52 1.54 1.62 1.45 1.34 1.23 1.15 1.17 1.05 0.99 1.07 1.05 1.03 1.09 1.20 1.44 1.82 1.94 1.94 1.94 1.74 1.48 1.20 1.14 1.05 1.15 1.09 0.94 0.85 0.86 0.87 0.91 0.92 0.89 0.86 0.87 0.92 0.84
1.30 1.26 1.36 1.38 1.18 1.02 1.00 0.99 0.94 0.95 1.00 0.96 0.91 0.91 1.02 1.17 1.34 1.61 1.73 1.69 1.58 1.34 1.15 1.19 1.09 1.08 1.07 0.93 0.83 0.80 0.78 0.76 0.80 0.88 0.95 0.98 0.98 0.92
1.30 1.31 1.39 1.44 1.20 1.04 0.90 0.83 0.83 0.79 0.81 0.88 0.86 0.83 0.89 1.00 1.21 1.46 1.69 1.72 1.58 1.45 1.41 1.38 1.27 1.19 1.12 0.99 0.86 0.79 0.80 0.81 0.82 0.84 0.87 1.05 1.03 1.01
1.32 1.58 1.58 1.52 1.32 1.08 0.98 0.96 0.87 0.76 0.80 0.84 0.84 0.80 0.83 0.96 1.22 1.49 1.69 1.84 1.76 1.57 1.46 1.38 1.34 1.33 1.32 1.14 0.98 0.92 0.92 0.89 0.83 0.82 0.85 0.89 0.92 0.98
1.31 1.53 1.64 1.65 1.53 1.36 1.26 1.15 0.94 0.87 0.93 0.93 0.96 1.01 1.08 1.18 1.33 1.46 1.63 1.76 1.79 1.63 1.49 1.44 1.42 1.49 1.46 1.31 1.18 1.05 0.97 0.94 0.91 0.93 0.97 0.97 0.96 0.93
1.36 1.59 1.73 1.83 1.84 1.76 1.61 1.49 1.34 1.19 1.06 1.03 1.10 1.11 1.15 1.22 1.29 1.42 1.62 1.70 1.62 1.43 1.37 1.41 1.48 1.55 1.55 1.47 1.25 0.99 0.92 0.89 0.89 1.01 1.08 1.05 0.99 0.93
1.28 1.45 1.69 1.87 1.94 2.01 2.00 1.88 1.65 1.46 1.34 1.31 1.27 1.23 1.24 1.24 1.29 1.44 1.63 1.71 1.59 1.44 1.36 1.33 1.47 1.60 1.59 1.43 1.20 1.00 0.90 0.88 0.88 0.97 1.03 1.03 0.91 0.83
1.11 1.25 1.37 1.51 1.69 1.89 1.98 1.96 1.76 1.62 1.63 1.59 1.48 1.43 1.46 1.47 1.48 1.56 1.70 1.78 1.75 1.62 1.53 1.51 1.55 1.58 1.47 1.17 0.93 0.87 0.90 0.87 0.91 0.91 0.91 0.91 0.85 0.80
0.93 1.05 1.20 1.36 1.52 1.78 1.93 1.97 1.91 1.81 1.80 1.81 1.75 1.68 1.67 1.64 1.59 1.56 1.66 1.73 1.74 1.70 1.64 1.54 1.41 1.39 1.37 1.24 1.11 0.95 0.90 0.98 1.02 1.02 0.97 0.98 0.96 0.99
0.93 0.98 1.05 1.21 1.38 1.61 1.84 2.00 2.01 1.90 1.81 1.83 1.82 1.74 1.71 1.70 1.59 1.51 1.57 1.72 1.78 1.75 1.58 1.37 1.27 1.42 1.60 1.72 1.49 1.12 0.98 1.00 1.12 1.14 1.17 1.23 1.14 1.08
1.05 1.07 1.14 1.26 1.41 1.63 1.83 1.92 1.94 1.91 1.85 1.85 1.81 1.72 1.66 1.63 1.51 1.46 1.47 1.54 1.57 1.60 1.56 1.54 1.69 1.79 1.76 1.69 1.42 1.17 1.08 1.09 1.17 1.26 1.24 1.19 1.11 1.02
1.15 1.13 1.17 1.26 1.45 1.65 1.78 1.88 1.89 1.89 1.86 1.81 1.77 1.69 1.63 1.62 1.59 1.55 1.51 1.52 1.56 1.60 1.74 1.79 1.78 1.79 1.71 1.63 1.56 1.44 1.35 1.32 1.33 1.29 1.14 1.04 0.98 0.94

GEFSNE_prec_meanprecacc_240.txt.gz
Total_Precipitation_Accumulation
1.48 1.62 1.50 1.31 1.26 1.22 1.47 1.78 1.96 1.76 1.56 1.43 1.36 1.36 1.39 1.44 1.62 1.51 1.54 1.52 1.35 1.22 1.12 1.05 1.03 0.99 1.00 1.08 1.17 1.20 1.24 1.35 1.55 1.77 2.00 2.28 2.57 2.86
1.66 1.67 1.55 1.39 1.46 1.31 1.38 1.65 1.85 1.99 1.81 1.35 1.38 1.37 1.46 1.35 1.56 1.46 1.52 1.54 1.34 1.23 1.11 1.05 1.01 0.98 0.98 1.00 1.06 1.14 1.18 1.18 1.24 1.35 1.47 1.58 1.71 1.90
1.83 1.73 1.67 1.68 1.68 1.54 1.56 1.65 1.71 1.92 1.90 1.53 1.48 1.60 1.71 1.61 1.65 1.59 1.48 1.50 1.37 1.30 1.13 1.05 1.00 0.97 1.00 0.98 0.99 0.99 1.04 1.06 1.09 1.15 1.22 1.27 1.29 1.32
2.19 2.24 2.02 1.95 1.92 1.75 1.72 1.70 1.73 1.88 1.93 1.82 1.72 1.79 1.82 1.75 1.72 1.52 1.28 1.20 1.25 1.37 1.28 1.14 1.07 1.00 0.96 0.95 0.96 0.94 0.95 0.97 1.02 1.03 1.07 1.11 1.15 1.16
2.05 2.23 2.22 2.30 2.09 2.02 1.92 1.83 1.79 1.77 1.92 1.86 1.73 1.91 1.93 1.91 1.79 1.46 1.32 1.34 1.20 1.37 1.37 1.17 1.05 1.00 0.94 0.89 0.87 0.88 0.88 0.90 0.92 0.95 0.96 0.94 0.95 0.97
1.83 1.89 2.01 2.25 2.24 2.23 2.08 2.06 2.07 2.06 2.11 2.04 1.95 2.06 2.22 2.25 2.08 1.71 1.54 1.48 1.35 1.20 1.28 1.17 1.10 1.05 0.97 0.91 0.86 0.83 0.83 0.85 0.87 0.88 0.90 0.90 0.88 0.85
1.87 1.81 1.79 2.03 2.12 2.12 1.91 1.98 2.13 2.18 2.21 2.18 2.16 2.21 2.26 2.38 2.11 1.85 1.66 1.63 1.56 1.37 1.29 1.13 1.09 1.04 1.05 1.07 1.02 0.93 0.86 0.85 0.87 0.89 0.88 0.88 0.88 0.89
2.11 2.04 1.93 1.88 1.87 1.90 1.93 1.97 2.03 2.03 2.06 2.10 2.07 2.10 2.17 2.28 2.38 2.19 1.94 1.77 1.62 1.44 1.44 1.29 1.22 1.16 1.05 0.97 1.07 1.03 0.94 0.88 0.85 0.86 0.87 0.89 0.87 0.84
2.06 2.05 1.84 1.71 1.84 1.78 1.94 1.97 1.83 1.76 1.73 1.81 1.84 1.90 2.27 2.52 2.73 2.45 2.20 1.99 1.75 1.62 1.57 1.37 1.26 1.16 1.04 1.00 1.11 0.98 0.90 0.86 0.81 0.80 0.80 0.81 0.83 0.84
1.74 1.84 1.81 1.72 1.72 1.77 1.73 1.56 1.44 1.44 1.44 1.36 1.41 1.62 1.98 2.45 2.70 2.69 2.64 2.40 2.13 1.78 1.55 1.35 1.14 1.07 1.00 0.99 1.11 1.04 0.93 0.87 0.81 0.76 0.71 0.71 0.75 0.79
1.55 1.55 1.55 1.46 1.54 1.57 1.48 1.33 1.24 1.21 1.25 1.25 1.24 1.39 1.63 1.94 2.31 2.47 2.40 2.21 1.89 1.53 1.35 1.22 1.09 1.09 1.04 0.97 0.99 1.11 1.01 0.93 0.88 0.83 0.79 0.76 0.78 0.84
1.60 1.61 1.67 1.48 1.38 1.26 1.20 1.21 1.08 1.02 1.12 1.10 1.08 1.14 1.25 1.49 1.88 1.98 1.98 1.99 1.79 1.53 1.26 1.22 1.13 1.23 1.17 1.00 0.93 0.96 0.97 1.00 0.99 0.95 0.90 0.90 0.94 0.85
1.34 1.30 1.38 1.40 1.20 1.05 1.03 1.02 0.97 0.98 1.04 1.01 0.95 0.94 1.06 1.21 1.39 1.65 1.78 1.73 1.63 1.38 1.21 1.28 1.18 1.18 1.17 0.99 0.90 0.89 0.89 0.87 0.90 0.97 1.02 1.03 1.02 0.94
1.33 1.34 1.42 1.46 1.22 1.07 0.93 0.86 0.87 0.83 0.84 0.91 0.89 0.86 0.92 1.03 1.24 1.50 1.74 1.77 1.62 1.49 1.47 1.47 1.37 1.29 1.22 1.07 0.93 0.87 0.91 0.94 0.96 0.98 1.00 1.14 1.10 1.07
1.34 1.61 1.63 1.58 1.37 1.12 1.03 1.01 0.92 0.80 0.83 0.87 0.86 0.83 0.86 1.00 1.26 1.54 1.76 1.92 1.83 1.63 1.53 1.46 1.43 1.43 1.43 1.23 1.06 1.00 1.02 1.00 0.95 0.95 0.97 1.00 1.03 1.08
1.32 1.54 1.67 1.69 1.59 1.42 1.32 1.23 1.01 0.92 0.97 0.97 0.99 1.04 1.12 1.24 1.39 1.52 1.69 1.83 1.87 1.69 1.56 1.52 1.50 1.57 1.53 1.38 1.26 1.13 1.04 1.03 1.01 1.05 1.09 1.10 1.09 1.06
1.37 1.60 1.74 1.85 1.88 1.82 1.69 1.57 1.42 1.26 1.13 1.08 1.13 1.14 1.19 1.28 1.35 1.50 1.69 1.77 1.70 1.49 1.45 1.50 1.58 1.65 1.64 1.56 1.33 1.06 1.00 0.97 0.97 1.09 1.18 1.15 1.07 1.02
1.29 1.46 1.70 1.89 1.96 2.05 2.06 1.95 1.73 1.53 1.41 1.36 1.32 1.29 1.31 1.30 1.35 1.52 1.71 1.80 1.68 1.53 1.43 1.41 1.57 1.69 1.69 1.53 1.29 1.09 0.99 0.96 0.96 1.05 1.11 1.10 0.98 0.89
1.13 1.26 1.38 1.52 1.70 1.92 2.02 2.01 1.81 1.67 1.68 1.64 1.55 1.52 1.54 1.55 1.56 1.65 1.81 1.90 1.87 1.73 1.63 1.61 1.66 1.69 1.57 1.26 1.03 0.97 0.99 0.96 1.00 1.01 0.99 0.99 0.92 0.87
0.95 1.07 1.21 1.37 1.54 1.80 1.95 2.00 1.95 1.86 1.85 1.87 1.83 1.77 1.75 1.71 1.66 1.63 1.75 1.84 1.87 1.84 1.78 1.68 1.55 1.53 1.50 1.36 1.22 1.06 1.01 1.07 1.10 1.11 1.06 1.05 1.03 1.07
0.96 1.01 1.07 1.22 1.40 1.63 1.87 2.02 2.04 1.94 1.86 1.91 1.89 1.81 1.79 1.79 1.69 1.60 1.66 1.82 1.90 1.87 1.72 1.51 1.40 1.58 1.74 1.84 1.61 1.24 1.10 1.11 1.21 1.23 1.25 1.31 1.22 1.17
1.07 1.09 1.16 1.28 1.43 1.66 1.86 1.95 1.97 1.94 1.88 1.89 1.87 1.79 1.74 1.71 1.60 1.54 1.55 1.62 1.67 1.70 1.69 1.69 1.84 1.94 1.91 1.83 1.54 1.28 1.20 1.20 1.28 1.36 1.33 1.28 1.20 1.11
1.18 1.16 1.20 1.29 1.47 1.67 1.81 1.91 1.92 1.92 1.92 1.89 1.86 1.78 1.73 1.72 1.67 1.63 1.58 1.60 1.64 1.69 1.83 1.90 1.90 1.93 1.84 1.74 1.65 1.54 1.46 1.43 1.43 1.40 1.25 1.14 1.07 1.02

GEFSNE_prec_meanprecacc_246.txt.gz
Total_Precipitation_Accumulation
1.52 1.66 1.54 1.35 1.31 1.28 1.52 1.83 2.01 1.80 1.58 1.44 1.38 1.38 1.42 1.46 1.65 1.55 1.57 1.56 1.40 1.26 1.15 1.08 1.05 1.01 1.01 1.09 1.17 1.20 1.24 1.35 1.55 1.77 2.00 2.29 2.59 2.89
1.70 1.71 1.59 1.44 1.50 1.35 1.42 1.69 1.90 2.03 1.83 1.37 1.41 1.41 1.51 1.39 1.59 1.50 1.56 1.58 1.39 1.27 1.15 1.08 1.03 1.00 0.99 1.00 1.06 1.14 1.18 1.18 1.24 1.35 1.47 1.59 1.71 1.91
1.89 1.80 1.72 1.71 1.71 1.57 1.59 1.69 1.75 1.97 1.92 1.54 1.49 1.63 1.73 1.63 1.68 1.63 1.53 1.55 1.41 1.34 1.16 1.07 1.02 0.99 1.01 0.99 1.00 1.00 1.04 1.06 1.09 1.15 1.22 1.28 1.29 1.33
2.24 2.30 2.07 1.99 1.95 1.79 1.76 1.74 1.76 1.92 1.96 1.84 1.74 1.81 1.84 1.78 1.75 1.57 1.31 1.23 1.28 1.40 1.30 1.16 1.08 1.01 0.97 0.96 0.96 0.95 0.95 0.98 1.02 1.04 1.08 1.12 1.15 1.16
2.08 2.26 2.26 2.35 2.12 2.06 1.96 1.87 1.83 1.81 1.96 1.89 1.75 1.94 1.97 1.94 1.84 1.50 1.36 1.36 1.22 1.39 1.39 1.19 1.06 1.01 0.95 0.91 0.88 0.88 0.89 0.91 0.94 0.97 0.97 0.96 0.97 0.98
1.85 1.91 2.04 2.30 2.28 2.27 2.12 2.10 2.12 2.10 2.17 2.09 1.98 2.09 2.27 2.30 2.13 1.76 1.59 1.51 1.37 1.22 1.31 1.20 1.13 1.07 0.99 0.92 0.88 0.84 0.85 0.86 0.88 0.89 0.91 0.92 0.90 0.87
1.88 1.82 1.81 2.05 2.15 2.16 1.94 2.01 2.18 2.22 2.25 2.22 2.20 2.26 2.31 2.42 2.14 1.89 1.72 1.67 1.59 1.40 1.33 1.16 1.12 1.06 1.07 1.09 1.04 0.95 0.89 0.88 0.89 0.91 0.90 0.89 0.89 0.92
2.12 2.05 1.94 1.90 1.89 1.92 1.96 2.00 2.07 2.07 2.10 2.15 2.11 2.14 2.21 2.32 2.41 2.24 1.98 1.82 1.65 1.46 1.48 1.32 1.25 1.19 1.08 1.00 1.10 1.07 0.98 0.91 0.88 0.89 0.90 0.92 0.90 0.85
2.07 2.06 1.85 1.73 1.86 1.80 1.96 1.99 1.86 1.79 1.77 1.85 1.88 1.92 2.30 2.55 2.78 2.49 2.24 2.03 1.78 1.64 1.60 1.39 1.29 1.20 1.07 1.03 1.14 1.01 0.94 0.89 0.84 0.84 0.84 0.85 0.87 0.87
1.74 1.85 1.82 1.74 1.75 1.81 1.77 1.58 1.46 1.46 1.48 1.40 1.45 1.66 2.02 2.51 2.76 2.75 2.69 2.44 2.16 1.80 1.59 1.38 1.17 1.10 1.04 1.03 1.14 1.08 0.98 0.90 0.84 0.80 0.75 0.75 0.79 0.83
1.56 1.56 1.57 1.48 1.57 1.61 1.52 1.37 1.26 1.24 1.28 1.29 1.28 1.43 1.69 2.01 2.38 2.54 2.45 2.25 1.92 1.55 1.38 1.26 1.12 1.13 1.09 1.01 1.03 1.16 1.09 1.00 0.94 0.89 0.85 0.82 0.82 0.88
1.61 1.62 1.69 1.51 1.41 1.30 1.23 1.24 1.11 1.04 1.14 1.13 1.12 1.18 1.29 1.55 1.95 2.04 2.03 2.03 1.81 1.55 1.28 1.25 1.16 1.27 1.20 1.02 0.96 1.02 1.06 1.11 1.09 1.04 0.99 0.98 1.01 0.91
1.35 1.31 1.39 1.41 1.22 1.06 1.05 1.04 0.99 0.99 1.05 1.01 0.96 0.97 1.09 1.25 1.43 1.72 1.85 1.80 1.68 1.41 1.23 1.32 1.22 1.23 1.22 1.03 0.94 0.93 0.95 0.96 1.00 1.06 1.11 1.11 1.10 1.03
1.34 1.35 1.42 1.47 1.23 1.08 0.94 0.86 0.88 0.84 0.85 0.92 0.90 0.88 0.94 1.05 1.27 1.54 1.80 1.84 1.70 1.54 1.52 1.54 1.42 1.33 1.28 1.12 0.97 0.90 0.94 0.99 1.03 1.05 1.07 1.24 1.20 1.19
1.35 1.62 1.64 1.58 1.38 1.13 1.03 1.02 0.93 0.81 0.85 0.89 0.88 0.85 0.88 1.02 1.28 1.56 1.79 1.96 1.89 1.70 1.60 1.53 1.49 1.49 1.49 1.29 1.09 1.04 1.05 1.04 1.00 1.00 1.04 1.07 1.09 1.16
1.34 1.56 1.68 1.70 1.60 1.43 1.33 1.24 1.03 0.95 1.00 1.00 1.02 1.06 1.14 1.26 1.43 1.55 1.72 1.86 1.91 1.75 1.63 1.59 1.57 1.65 1.62 1.47 1.33 1.19 1.10 1.08 1.05 1.10 1.14 1.15 1.13 1.11
1.40 1.63 1.76 1.87 1.89 1.82 1.69 1.59 1.46 1.32 1.20 1.16 1.19 1.19 1.22 1.31 1.38 1.52 1.72 1.80 1.73 1.53 1.50 1.56 1.65 1.72 1.73 1.65 1.41 1.13 1.05 1.01 1.00 1.13 1.21 1.18 1.11 1.05
1.32 1.49 1.72 1.91 1.97 2.06 2.06 1.96 1.75 1.56 1.44 1.41 1.37 1.33 1.33 1.32 1.37 1.53 1.73 1.83 1.72 1.56 1.49 1.47 1.64 1.77 1.76 1.60 1.36 1.15 1.03 0.99 0.98 1.08 1.15 1.14 1.02 0.94
1.15 1.27 1.40 1.54 1.72 1.93 2.03 2.01 1.81 1.68 1.70 1.66 1.58 1.54 1.56 1.57 1.57 1.67 1.83 1.92 1.89 1.76 1.67 1.67 1.73 1.75 1.63 1.31 1.07 1.01 1.03 1.00 1.04 1.06 1.06 1.05 0.98 0.92
0.96 1.09 1.23 1.38 1.55 1.81 1.96 2.00 1.96 1.87 1.88 1.90 1.86 1.80 1.78 1.73 1.68 1.65 1.77 1.86 1.88 1.87 1.82 1.74 1.63 1.61 1.58 1.43 1.28 1.12 1.07 1.13 1.16 1.17 1.14 1.14 1.12 1.16
0.96 1.01 1.08 1.23 1.41 1.64 1.88 2.03 2.05 1.95 1.87 1.94 1.93 1.85 1.83 1.83 1.72 1.62 1.68 1.84 1.92 1.90 1.76 1.56 1.47 1.67 1.85 1.95 1.71 1.33 1.20 1.22 1.29 1.30 1.33 1.40 1.32 1.26
1.08 1.10 1.17 1.29 1.44 1.67 1.87 1.96 1.99 1.96 1.90 1.91 1.90 1.82 1.79 1.78 1.64 1.57 1.58 1.65 1.69 1.74 1.73 1.73 1.89 2.03 2.04 1.97 1.67 1.40 1.33 1.36 1.45 1.51 1.46 1.38 1.29 1.19
1.19 1.17 1.21 1.30 1.48 1.68 1.82 1.92 1.94 1.94 1.94 1.92 1.88 1.81 1.77 1.78 1.73 1.67 1.62 1.64 1.67 1.72 1.88 1.95 1.95 2.01 1.96 1.90 1.82 1.70 1.60 1.56 1.58 1.56 1.40 1.28 1.17 1.09

GEFSNE_prec_meanprecacc_252.txt.gz
Total_Precipitation_Accumulation
1.55 1.70 1.58 1.40 1.36 1.32 1.56 1.88 2.05 1.83 1.61 1.46 1.39 1.39 1.43 1.47 1.68 1.58 1.60 1.58 1.42 1.28 1.16 1.09 1.07 1.04 1.04 1.11 1.19 1.22 1.26 1.37 1.57 1.79 2.02 2.31 2.61 2.91
1.73 1.73 1.62 1.48 1.55 1.40 1.46 1.74 1.96 2.09 1.86 1.39 1.42 1.42 1.52 1.40 1.61 1.53 1.59 1.60 1.41 1.28 1.17 1.10 1.04 1.01 1.00 1.02 1.07 1.15 1.19 1.19 1.25 1.36 1.48 1.60 1.73 1.93
1.92 1.83 1.75 1.75 1.74 1.60 1.62 1.72 1.80 2.02 1.94 1.55 1.50 1.64 1.74 1.64 1.69 1.67 1.58 1.59 1.44 1.36 1.18 1.09 1.04 1.00 1.01 1.00 1.00 1.00 1.05 1.07 1.10 1.15 1.23 1.28 1.30 1.34
2.26 2.31 2.09 2.01 1.97 1.82 1.79 1.76 1.80 1.97 1.99 1.85 1.75 1.82 1.85 1.79 1.76 1.59 1.37 1.28 1.31 1.42 1.32 1.18 1.10 1.03 0.98 0.97 0.97 0.96 0.96 0.98 1.03 1.04 1.08 1.12 1.16 1.17
2.10 2.28 2.28 2.38 2.14 2.08 1.99 1.90 1.86 1.84 1.99 1.91 1.77 1.96 1.98 1.96 1.86 1.52 1.38 1.39 1.25 1.43 1.41 1.21 1.08 1.03 0.97 0.92 0.90 0.90 0.90 0.92 0.95 0.97 0.98 0.96 0.98 1.00
1.87 1.93 2.07 2.32 2.30 2.29 2.15 2.13 2.14 2.12 2.19 2.11 2.01 2.11 2.29 2.32 2.15 1.77 1.61 1.53 1.40 1.25 1.34 1.22 1.14 1.08 1.00 0.94 0.90 0.87 0.86 0.87 0.89 0.90 0.92 0.93 0.91 0.89
1.91 1.85 1.83 2.07 2.16 2.17 1.96 2.02 2.19 2.24 2.27 2.24 2.21 2.28 2.33 2.45 2.17 1.92 1.75 1.70 1.61 1.43 1.35 1.18 1.14 1.08 1.09 1.10 1.05 0.97 0.90 0.88 0.90 0.91 0.91 0.91 0.91 0.94
2.14 2.07 1.96 1.92 1.91 1.94 1.97 2.01 2.08 2.08 2.12 2.16 2.13 2.17 2.23 2.34 2.45 2.27 2.02 1.85 1.67 1.49 1.51 1.34 1.26 1.20 1.09 1.01 1.12 1.09 1.00 0.92 0.89 0.90 0.92 0.94 0.94 0.91
2.09 2.07 1.87 1.74 1.88 1.82 1.98 2.00 1.87 1.81 1.79 1.88 1.91 1.94 2.32 2.58 2.81 2.52 2.27 2.06 1.81 1.67 1.63 1.41 1.30 1.21 1.08 1.04 1.15 1.02 0.95 0.90 0.86 0.85 0.86 0.87 0.89 0.90
1.78 1.87 1.84 1.76 1.77 1.84 1.79 1.60 1.48 1.47 1.50 1.43 1.47 1.68 2.05 2.53 2.78 2.78 2.72 2.47 2.18 1.82 1.61 1.40 1.18 1.11 1.05 1.04 1.15 1.09 0.99 0.91 0.87 0.83 0.78 0.77 0.81 0.85
1.61 1.60 1.60 1.50 1.59 1.64 1.55 1.39 1.28 1.25 1.30 1.31 1.30 1.45 1.71 2.04 2.41 2.57 2.48 2.28 1.93 1.56 1.40 1.28 1.13 1.14 1.10 1.02 1.04 1.19 1.11 1.03 0.97 0.91 0.88 0.85 0.85 0.91
1.67 1.67 1.72 1.53 1.43 1.33 1.26 1.27 1.14 1.06 1.15 1.14 1.13 1.19 1.30 1.56 1.97 2.06 2.05 2.06 1.84 1.57 1.29 1.27 1.18 1.29 1.22 1.03 0.97 1.03 1.08 1.14 1.13 1.08 1.03 1.02 1.06 0.95
1.41 1.37 1.45 1.47 1.27 1.10 1.09 1.07 1.01 1.01 1.06 1.02 0.97 0.98 1.10 1.25 1.43 1.72 1.85 1.81 1.70 1.43 1.25 1.35 1.24 1.25 1.24 1.05 0.95 0.94 0.97 0.99 1.04 1.12 1.18 1.17 1.17 1.08
1.39 1.41 1.49 1.53 1.28 1.11 0.96 0.88 0.89 0.85 0.86 0.93 0.91 0.88 0.94 1.05 1.27 1.54 1.81 1.85 1.72 1.58 1.55 1.57 1.44 1.36 1.31 1.16 1.01 0.93 0.96 1.01 1.05 1.08 1.13 1.32 1.30 1.28
1.39 1.67 1.68 1.63 1.42 1.15 1.05 1.03 0.94 0.82 0.85 0.90 0.89 0.86 0.89 1.02 1.28 1.57 1.80 1.97 1.91 1.74 1.65 1.57 1.52 1.51 1.52 1.31 1.12 1.06 1.08 1.06 1.02 1.02 1.06 1.11 1.15 1.23
1.39 1.62 1.74 1.74 1.63 1.45 1.35 1.25 1.04 0.96 1.01 1.01 1.03 1.08 1.15 1.27 1.43 1.56 1.73 1.87 1.93 1.77 1.67 1.63 1.61 1.68 1.64 1.48 1.35 1.21 1.12 1.10 1.08 1.12 1.17 1.18 1.17 1.14
1.46 1.68 1.81 1.91 1.92 1.85 1.72 1.61 1.48 1.33 1.21 1.17 1.21 1.20 1.24 1.33 1.39 1.54 1.74 1.82 1.75 1.55 1.52 1.60 1.68 1.76 1.76 1.67 1.43 1.15 1.07 1.03 1.01 1.14 1.23 1.20 1.12 1.06
1.40 1.54 1.76 1.93 2.00 2.08 2.09 1.98 1.77 1.58 1.45 1.42 1.39 1.35 1.36 1.36 1.41 1.57 1.77 1.87 1.74 1.58 1.50 1.50 1.67 1.80 1.79 1.63 1.38 1.17 1.05 1.00 0.99 1.09 1.16 1.16 1.03 0.95
1.26 1.38 1.48 1.58 1.75 1.96 2.06 2.03 1.83 1.70 1.71 1.67 1.59 1.56 1.58 1.60 1.60 1.70 1.87 1.97 1.91 1.77 1.68 1.68 1.76 1.79 1.66 1.33 1.09 1.03 1.06 1.01 1.05 1.07 1.07 1.06 0.99 0.94
1.03 1.18 1.32 1.46 1.61 1.85 2.00 2.03 1.98 1.89 1.89 1.92 1.88 1.82 1.82 1.78 1.71 1.68 1.80 1.88 1.90 1.88 1.83 1.75 1.65 1.64 1.61 1.45 1.30 1.14 1.09 1.16 1.18 1.19 1.15 1.16 1.14 1.18
1.00 1.05 1.11 1.26 1.44 1.67 1.91 2.06 2.07 1.97 1.89 1.95 1.94 1.86 1.86 1.87 1.76 1.67 1.72 1.88 1.94 1.92 1.77 1.57 1.49 1.69 1.87 1.99 1.75 1.36 1.22 1.25 1.33 1.33 1.35 1.44 1.36 1.30
1.12 1.13 1.20 1.32 1.47 1.69 1.89 1.98 2.00 1.98 1.92 1.93 1.91 1.84 1.82 1.80 1.67 1.60 1.62 1.69 1.72 1.76 1.74 1.74 1.91 2.05 2.06 2.00 1.71 1.43 1.36 1.40 1.50 1.57 1.51 1.43 1.34 1.24
1.21 1.19 1.23 1.32 1.50 1.71 1.85 1.95 1.96 1.97 1.96 1.94 1.90 1.83 1.80 1.80 1.75 1.70 1.67 1.69 1.71 1.75 1.90 1.97 1.98 2.05 1.99 1.93 1.86 1.73 1.63 1.60 1.62 1.60 1.46 1.34 1.23 1.15

GEFSNE_prec_meanprecacc_258.txt.gz
Total_Precipitation_Accumulation
1.61 1.77 1.65 1.48 1.44 1.39 1.61 1.93 2.12 1.90 1.67 1.50 1.42 1.41 1.45 1.51 1.72 1.62 1.65 1.61 1.44 1.29 1.17 1.10 1.07 1.04 1.04 1.12 1.21 1.24 1.29 1.39 1.58 1.80 2.02 2.31 2.62 2.92
1.79 1.78 1.68 1.54 1.61 1.46 1.52 1.79 2.02 2.16 1.94 1.44 1.47 1.46 1.55 1.42 1.63 1.57 1.69 1.66 1.43 1.30 1.18 1.10 1.05 1.02 1.01 1.02 1.08 1.17 1.21 1.20 1.26 1.37 1.48 1.60 1.73 1.94
1.97 1.88 1.82 1.82 1.82 1.68 1.69 1.79 1.86 2.08 2.01 1.60 1.53 1.67 1.77 1.68 1.73 1.69 1.64 1.65 1.47 1.40 1.20 1.10 1.04 1.01 1.02 1.01 1.01 1.01 1.06 1.08 1.11 1.16 1.23 1.29 1.31 1.34
2.31 2.37 2.14 2.06 2.02 1.87 1.84 1.81 1.85 2.02 2.04 1.90 1.79 1.84 1.87 1.81 1.78 1.62 1.40 1.33 1.35 1.46 1.35 1.20 1.11 1.04 0.99 0.98 0.98 0.97 0.97 1.00 1.04 1.05 1.09 1.13 1.17 1.18
2.16 2.34 2.34 2.42 2.19 2.13 2.04 1.96 1.91 1.88 2.03 1.94 1.80 1.99 2.00 1.97 1.87 1.54 1.43 1.44 1.29 1.46 1.44 1.23 1.11 1.05 0.99 0.94 0.91 0.91 0.91 0.93 0.96 0.99 0.99 0.98 0.99 1.00
1.95 2.01 2.14 2.39 2.37 2.36 2.21 2.18 2.18 2.15 2.22 2.14 2.03 2.13 2.30 2.33 2.17 1.79 1.65 1.57 1.44 1.28 1.37 1.24 1.17 1.11 1.03 0.95 0.90 0.87 0.87 0.88 0.90 0.91 0.94 0.94 0.93 0.90
1.97 1.91 1.90 2.13 2.22 2.22 2.00 2.06 2.22 2.27 2.30 2.27 2.24 2.30 2.35 2.47 2.18 1.93 1.76 1.72 1.64 1.46 1.38 1.21 1.16 1.09 1.10 1.11 1.05 0.97 0.90 0.89 0.91 0.92 0.92 0.92 0.93 0.97
2.19 2.11 2.00 1.96 1.95 1.98 2.02 2.05 2.12 2.11 2.15 2.18 2.15 2.19 2.25 2.36 2.47 2.29 2.04 1.87 1.70 1.53 1.54 1.37 1.29 1.21 1.10 1.02 1.12 1.09 1.00 0.93 0.90 0.91 0.93 0.96 0.95 0.93
2.12 2.11 1.90 1.77 1.91 1.85 2.01 2.03 1.90 1.83 1.81 1.90 1.92 1.96 2.34 2.60 2.84 2.55 2.31 2.09 1.84 1.70 1.66 1.43 1.32 1.23 1.09 1.05 1.16 1.03 0.96 0.90 0.87 0.87 0.88 0.90 0.91 0.92
1.81 1.91 1.88 1.79 1.80 1.87 1.81 1.62 1.49 1.49 1.51 1.43 1.48 1.70 2.07 2.56 2.81 2.81 2.74 2.49 2.20 1.84 1.63 1.41 1.19 1.12 1.07 1.06 1.17 1.10 0.99 0.92 0.87 0.84 0.80 0.80 0.84 0.88
1.63 1.62 1.62 1.53 1.63 1.66 1.57 1.41 1.30 1.27 1.30 1.31 1.30 1.46 1.72 2.05 2.42 2.58 2.50 2.29 1.95 1.58 1.42 1.30 1.15 1.16 1.12 1.05 1.07 1.20 1.12 1.03 0.98 0.92 0.89 0.87 0.88 0.93
1.69 1.70 1.74 1.55 1.46 1.36 1.29 1.30 1.16 1.08 1.17 1.16 1.14 1.19 1.31 1.57 1.97 2.06 2.06 2.07 1.86 1.59 1.31 1.29 1.20 1.32 1.25 1.06 1.00 1.06 1.10 1.15 1.15 1.09 1.04 1.04 1.08 0.97
1.44 1.39 1.47 1.50 1.29 1.13 1.10 1.09 1.03 1.03 1.09 1.04 0.99 0.99 1.11 1.26 1.44 1.73 1.86 1.83 1.73 1.46 1.28 1.38 1.27 1.29 1.28 1.08 0.98 0.97 0.98 1.00 1.06 1.14 1.19 1.19 1.18 1.10
1.43 1.45 1.53 1.57 1.30 1.13 0.98 0.89 0.91 0.87 0.88 0.95 0.92 0.89 0.96 1.06 1.28 1.55 1.82 1.86 1.74 1.60 1.58 1.59 1.47 1.39 1.35 1.20 1.04 0.96 0.99 1.03 1.07 1.10 1.15 1.35 1.33 1.31
1.45 1.72 1.74 1.69 1.46 1.19 1.07 1.05 0.96 0.84 0.87 0.91 0.90 0.87 0.90 1.03 1.29 1.58 1.81 1.99 1.93 1.75 1.66 1.59 1.55 1.54 1.56 1.35 1.16 1.09 1.10 1.09 1.04 1.05 1.09 1.15 1.19 1.27
1.43 1.66 1.79 1.80 1.68 1.49 1.39 1.29 1.07 0.98 1.03 1.03 1.05 1.09 1.17 1.29 1.45 1.57 1.75 1.89 1.94 1.79 1.68 1.65 1.64 1.72 1.68 1.53 1.40 1.25 1.16 1.14 1.11 1.15 1.20 1.21 1.20 1.17
1.49 1.72 1.86 1.96 1.97 1.90 1.77 1.66 1.52 1.37 1.24 1.19 1.23 1.23 1.27 1.35 1.41 1.55 1.76 1.84 1.77 1.57 1.55 1.63 1.72 1.81 1.82 1.74 1.49 1.20 1.12 1.07 1.05 1.17 1.25 1.22 1.14 1.08
1.43 1.58 1.81 2.00 2.06 2.14 2.15 2.04 1.82 1.62 1.48 1.45 1.41 1.37 1.39 1.39 1.43 1.58 1.79 1.89 1.77 1.62 1.55 1.55 1.73 1.87 1.85 1.68 1.42 1.20 1.09 1.04 1.03 1.12 1.18 1.18 1.05 0.96
1.30 1.43 1.54 1.65 1.83 2.04 2.13 2.10 1.90 1.76 1.76 1.72 1.63 1.60 1.62 1.63 1.63 1.73 1.90 2.00 1.96 1.81 1.72 1.71 1.79 1.83 1.70 1.36 1.11 1.05 1.08 1.04 1.09 1.11 1.09 1.08 1.00 0.95
1.08 1.23 1.39 1.53 1.69 1.93 2.06 2.09 2.04 1.95 1.95 1.97 1.93 1.88 1.87 1.83 1.76 1.72 1.83 1.92 1.94 1.92 1.87 1.79 1.69 1.68 1.65 1.49 1.33 1.18 1.12 1.17 1.21 1.22 1.18 1.17 1.15 1.20
1.03 1.08 1.15 1.31 1.48 1.72 1.95 2.10 2.10 2.00 1.92 1.98 1.96 1.89 1.89 1.91 1.80 1.70 1.75 1.91 1.98 1.95 1.81 1.61 1.52 1.72 1.92 2.03 1.80 1.40 1.25 1.27 1.35 1.37 1.40 1.48 1.39 1.33
1.15 1.16 1.24 1.36 1.50 1.72 1.92 2.01 2.04 2.01 1.96 1.96 1.94 1.88 1.85 1.84 1.71 1.64 1.66 1.73 1.76 1.79 1.78 1.77 1.94 2.08 2.09 2.03 1.74 1.47 1.39 1.43 1.52 1.60 1.55 1.48 1.38 1.27
1.24 1.22 1.27 1.37 1.54 1.74 1.88 1.97 1.99 2.00 2.01 1.98 1.94 1.87 1.84 1.84 1.79 1.74 1.70 1.73 1.74 1.77 1.93 2.01 2.01 2.08 2.02 1.96 1.89 1.77 1.66 1.62 1.64 1.63 1.49 1.39 1.28 1.19